Погода в Куге

Россия / Республика Дагестан     41°46′14″N   47°57′51″E
темп.,
°C
ветер,
м/с
пор.,
м/с
влажн.,
%
обл.,
%
осадки,
мм/ч
давл.,
гПа
погр.,
м
4 июля, пн
пн400:00+14юз2269100 0.0 101513
03:00+13зюз227798 0.3 101630
06:00+15з116784 0.0 101636
09:00+16ююв2356100 0.1 1017590
12:00+20вюв434397 0.1 10162002
15:00+19ююв334834 0.1 10161453
18:00+19юв115138 0.0 1016579
21:00+13зюз32682 0.0 101715
5 июля, вт
вт500:00+14з43621 0.0 101626
03:00+14з43600 0.0 101629
06:00+17з32560 0.0 101679
09:00+21вюв22382 0.0 10151846
12:00+25в443136 0.0 10142617
15:00+23в443689 0.0 10142127
18:00+20сз114640 0.0 101511
21:00+13зюз218015 0.0 101711
6 июля, ср
ср600:00+13з22732 0.0 101711
03:00+13з32690 0.0 101715
06:00+17з11580 0.0 101793
09:00+21в32475 0.0 10161358
12:00+23всв544579 0.0 10161620
15:00+21в445352 0.1 10171315
18:00+18в32606 0.0 1017546
21:00+12зюз11860 0.0 101911
7 июля, чт
чт700:00+12з11830 0.0 101810
03:00+12зюз11820 0.0 101710
06:00+15вюв11670 0.0 1017124
09:00+19в32590 0.0 1016787
12:00+22в434917 0.0 10151376
15:00+22в445026 0.0 10141268
18:00+19в33613 0.1 1015601
21:00+13зюз22864 0.3 101611
8 июля, пт
пт800:00+14з11800 0.1 101511
03:00+13з118234 0.1 101511
06:00+16зсз117029 0.0 1015115
09:00+20вюв2348100 0.1 1014934
12:00+23всв45368 0.2 10131429
15:00+23в443897 0.2 10131634
18:00+21в44418 0.0 1014826
21:00+14з32523 0.0 101515